This demonstration page uses our WeatherBlox Daily Observations layout. Learn more.

38.89511, -77.03637

Hourly Observations for November 5, 2017

Temp ( °F °C ) Dew Point ( °F °C ) Humidity (%) Winds ( mph kmh ) Pressure ( in mb ) Visibility ( mi km ) Precip ( " mm )
12:52 am 00:52 Cloudy with Light Drizzle 54 12.2 54 12.2 100 100 NE 6 9 30.24 1024 10 16.09344 0.01 0.254
1:48 am 01:48 Cloudy with Light Drizzle 54 12 54 12 100 100 NE 7 11 30.24 1024 5 8.04672 0.001 0.001
1:52 am 01:52 Cloudy with Light Drizzle 55 12.8 54 12.2 96 96 ENE 7 11 30.21 1023 5 8.04672 0.001 0.001
1:52 am 01:52 Cloudy with Light Drizzle 55 12.8 54 12.2 96 96 NNE 6 9 30.21 1023 3 4.828032 0.001 0.001
2:05 am 02:05 Cloudy with Light Drizzle 54 12.2 54 12.2 100 100 NE 6 9 30.24 1024 2.5 4.02336 0.001 0.001
2:52 am 02:52 Cloudy with Light Drizzle 54 12.2 54 12.2 100 100 NE 6 9 30.21 1023 2.5 4.02336 0.02 0.508
3:03 am 03:03 Cloudy with Light Drizzle 54 12.2 54 12.2 100 100 NE 6 9 30.21 1023 3 4.828032 0.001 0.001
3:44 am 03:44 Cloudy with Light Drizzle 55 12.8 54 12.2 96 96 NNE 5 7 30.21 1023 2.5 4.02336 0.01 0.254
3:52 am 03:52 Cloudy with Light Drizzle 55 12.8 54 12.2 96 96 NE 6 9 30.21 1023 2 3.218688 0.01 0.254
4:07 am 04:07 Cloudy with Light Drizzle 54 12.2 54 12.2 100 100 NE 7 11 30.21 1023 3 4.828032 0.01 0.254
4:18 am 04:18 Cloudy with Light Drizzle 55 12.8 54 12.2 96 96 NE 6 9 30.21 1023 4 6.437376 0.01 0.254
4:52 am 04:52 Cloudy with Light Drizzle 55 12.8 55 12.8 100 100 NE 3 6 30.18 1022 4 6.437376 0.02 0.508
5:52 am 05:52 Cloudy with Light Drizzle 55 12.8 55 12.8 100 100 NNE 5 7 30.21 1023 4 6.437376 0.001 0.001
6:38 am 06:38 Cloudy with Light Drizzle 55 12.8 55 12.8 100 100 Calm 30.21 1023 2.5 4.02336 0.01 0.254
6:52 am 06:52 Cloudy with Light Drizzle 55 12.8 55 12.8 100 100 ENE 5 7 30.18 1022 2.5 4.02336 0.01 0.254
7:35 am 07:35 Cloudy with Light Drizzle 56 13.3 55 12.8 97 97 N 3 6 30.21 1023 1.75 2.816352 0.001 0.001
7:52 am 07:52 Cloudy with Light Drizzle 56 13.3 55 12.8 97 97 N 3 6 30.21 1023 2 3.218688 0.01 0.254
8:46 am 08:46 Cloudy with Light Drizzle 55 13 55 13 100 100 NE 3 6 30.21 1023 3 4.828032 0.01 0.254
8:52 am 08:52 Cloudy with Light Drizzle 56 13.3 56 13.3 100 100 NE 3 6 30.21 1023 3 4.828032 0.01 0.254
9:25 am 09:25 Cloudy with Light Drizzle 57 13.9 56 13.3 96 96 Calm 30.21 1023 2.5 4.02336 0.001 0.001
9:52 am 09:52 Cloudy with Light Drizzle 57 13.9 57 13.9 100 100 Calm 30.18 1022 2.5 4.02336 0.001 0.001
10:52 am 10:52 Cloudy with Light Drizzle 58 14.4 58 14.4 100 100 Calm 30.18 1022 2.5 4.02336 0.01 0.254
11:14 am 11:14 Cloudy with Light Drizzle 59 15 58 14.4 96 96 SW 3 6 30.21 1023 4 6.437376 0.001 0.001
11:52 am 11:52 Cloudy with Light Drizzle 59 15 58 14.4 96 96 Calm 30.15 1021 3 4.828032 0.001 0.001
12:52 pm 12:52 Cloudy with Light Drizzle 60 15.6 60 15.6 100 100 SSW 6 9 30.15 1021 2.5 4.02336 0.001 0.001
1:52 pm 13:52 Cloudy with Light Drizzle 60 15.6 60 15.6 100 100 SSW 7 11 30.12 1020 2.5 4.02336 0.001 0.001
2:25 pm 14:25 Cloudy with Mist and Fog 60 15.6 60 15.6 100 100 S 8 13 30.12 1020 4 6.437376 0.001 0.001
2:52 pm 14:52 Cloudy 60 15.6 60 15.6 100 100 S 9 15 30.09 1019 9 14.484096 0.001 0.001
3:25 pm 15:25 Cloudy 61 16.1 59 15 93 93 SSW 8 13 30.12 1020 10 16.09344 0 0
3:28 pm 15:28 Cloudy 60 15.6 59 15 96 96 SSW 8 13 30.12 1020 10 16.09344 0 0
3:52 pm 15:52 Cloudy 60 15.6 59 15 96 96 S 7 11 30.09 1019 8 12.874752 0 0
4:03 pm 16:03 Cloudy 60 15.6 60 15.6 100 100 S 6 9 30.12 1020 9 14.484096 0 0
4:52 pm 16:52 Cloudy 61 16.1 59 15 93 93 SSW 6 9 30.09 1019 10 16.09344 0 0
4:57 pm 16:57 Cloudy 61 16.1 59 15 93 93 SSW 7 11 30.09 1019 10 16.09344 0 0
5:18 pm 17:18 Cloudy 60 15.6 59 15 96 96 S 7 11 30.09 1019 10 16.09344 0 0
5:52 pm 17:52 Cloudy 60 15.6 59 15 96 96 SSW 8 13 30.09 1019 10 16.09344 0 0
6:52 pm 18:52 Cloudy 60 15.6 59 15 96 96 S 8 13 30.06 1018 10 16.09344 0 0
7:52 pm 19:52 Cloudy 61 16.1 60 15.6 97 97 SSW 13 20 30.06 1018 10 16.09344 0 0
8:52 pm 20:52 Cloudy 61 16.1 60 15.6 97 97 SSW 9 15 30.06 1018 10 16.09344 0 0
9:52 pm 21:52 Cloudy 61 16.1 60 15.6 97 97 SSW 8 13 30.06 1018 10 16.09344 0.001 0.001
10:17 pm 22:17 Cloudy 61 16.1 60 15.6 97 97 SSW 8 13 30.09 1019 10 16.09344 0 0
10:46 pm 22:46 Cloudy 61 16 61 16 100 100 S 9 15 30.06 1018 10 16.09344 0 0
10:52 pm 22:52 Cloudy 60 15.6 60 15.6 100 100 SSW 8 13 30.06 1018 10 16.09344 0 0
11:49 pm 23:49 Cloudy 61 16 61 16 100 100 S 14 22 30.03 1017 10 16.09344 0 0
11:52 pm 23:52 Cloudy 61 16.1 60 15.6 97 97 SSW 15 24 30.03 1017 10 16.09344 0 0

Powered by AerisWeather